GFSCGP_850_temp_000.txt.gz
Temp
16 15 15 17 18 19 19 18 18 20 20 16 16 16 17 19 20 19 20 20 20 20 21 20 19 16 15 12 10 10 10 10 9 9 9 9 10 10 10 9 9 9 8 8
15 14 17 18 18 18 16 16 17 19 19 16 15 15 16 16 17 19 19 19 19 19 20 20 19 16 14 12 10 10 10 10 10 10 10 9 9 9 9 8 8 8 8 7
16 17 17 17 17 17 16 15 16 17 17 14 14 13 14 15 17 18 19 20 18 19 19 19 17 16 13 11 11 11 11 11 10 10 9 8 8 8 8 8 8 8 7 7
16 18 18 16 16 17 16 18 16 16 15 13 16 15 16 17 17 15 18 20 19 19 18 18 17 15 12 11 11 11 11 11 10 10 9 9 9 9 9 9 8 7 7 7
16 15 15 14 16 16 16 14 15 15 13 13 14 12 15 16 16 16 17 21 20 20 20 18 16 15 13 12 12 11 10 11 10 9 10 9 8 8 7 7 7 7 6 6
14 13 14 15 12 13 13 14 14 14 12 11 13 14 15 15 16 17 16 21 22 21 18 17 15 14 13 13 12 12 11 11 9 9 9 9 9 8 7 7 6 6 6 6
14 13 13 13 13 12 12 13 9 10 9 14 15 13 18 19 17 17 16 21 21 20 19 16 15 15 14 14 13 12 11 11 9 9 9 8 9 8 7 7 6 6 5 5
15 16 12 11 13 14 10 13 9 10 14 16 9 12 16 17 18 21 22 22 20 20 18 17 16 16 15 15 14 13 13 12 10 10 10 9 7 8 7 6 6 5 5 5
14 16 11 11 14 14 12 11 14 10 7 9 16 16 17 17 16 16 16 18 18 17 17 17 16 15 15 15 15 15 14 13 11 11 10 9 7 7 7 6 5 5 5 4
16 15 14 10 11 11 12 12 11 10 9 8 15 15 17 18 19 15 14 14 17 17 16 16 16 16 15 15 15 14 13 13 12 11 11 10 8 6 5 5 5 5 4 4
15 14 14 9 9 12 9 10 11 13 10 10 13 16 18 17 17 14 14 17 18 17 17 17 17 15 15 15 14 14 14 13 12 11 10 9 8 6 5 4 4 4 3 3
12 12 10 14 14 12 13 12 13 13 13 9 14 15 18 16 14 14 15 19 20 20 19 18 18 17 16 16 15 15 14 13 12 11 10 8 7 6 4 3 3 3 2 2
9 9 8 10 12 10 11 12 13 13 13 13 12 14 18 18 17 16 15 17 18 18 18 18 17 16 16 16 16 15 14 13 11 9 8 6 6 4 3 2 2 2 1 1
9 7 8 9 11 12 11 11 11 12 11 12 12 13 15 16 17 17 17 18 18 17 17 17 17 16 16 15 15 15 14 13 11 8 6 5 4 3 1 1 0 1 1 1
7 5 5 8 9 9 8 10 11 11 11 10 13 13 15 16 16 16 17 17 16 16 16 16 16 16 15 14 14 14 13 11 10 7 5 4 2 1 -1 -1 -0 -0 0 0
6 6 4 5 6 7 7 9 10 9 10 11 12 12 14 15 15 15 15 15 15 15 15 15 15 15 15 14 14 13 13 11 10 7 5 3 1 -0 -1 -1 -1 -0 -0 -0
4 5 5 6 7 6 6 6 8 9 10 11 10 12 14 14 14 15 15 15 15 15 15 14 14 14 14 13 13 12 12 10 8 6 4 2 1 -1 -1 -2 -1 -1 -1 -1
6 5 6 7 8 6 8 9 9 9 10 11 11 12 13 13 14 15 14 14 14 13 13 13 13 13 13 12 11 11 10 8 6 5 3 1 -0 -1 -2 -2 -1 -1 -1 -2
8 7 6 6 7 9 9 10 9 8 9 10 10 11 12 12 12 12 13 13 13 13 13 13 13 12 12 12 11 10 9 7 5 4 3 1 -0 -2 -3 -2 -2 -1 -1 -1
6 7 6 7 7 7 9 10 11 11 9 11 12 11 11 10 9 10 12 13 13 13 14 14 14 13 12 12 11 9 9 7 6 6 4 1 -1 -2 -2 -2 -2 -2 -2 -2
5 5 6 6 7 7 8 9 10 7 9 12 12 12 11 10 11 13 13 14 14 14 14 14 14 13 13 12 11 9 9 9 8 4 1 0 -1 -3 -3 -3 -2 -2 -2 -2
5 5 5 7 7 6 4 7 7 5 4 2 2 3 3 4 5 5 6 6 8 10 11 11 11 11 11 11 9 9 10 8 5 3 1 -1 -3 -4 -4 -3 -3 -3 -2 -2
1 -0 -1 0 2 2 2 0 1 2 -0 -0 0 0 0 1 2 2 2 3 4 5 5 6 7 8 9 8 8 8 9 6 5 2 0 -2 -4 -4 -4 -3 -3 -3 -3 -3
-1 1 0 -1 2 1 2 3 2 1 -0 -0 -0 0 0 1 1 2 3 3 4 4 5 5 5 6 6 7 6 6 5 3 2 -0 -2 -4 -5 -5 -5 -4 -4 -3 -4 -4
-2 -1 -2 -1 1 2 2 2 2 1 0 -1 -1 -1 -0 0 0 1 1 2 3 3 3 3 3 4 5 5 5 5 4 3 -1 -3 -4 -5 -6 -6 -6 -5 -4 -5 -5 -6
-2 -1 -2 -2 0 0 -0 -1 -2 -2 -5 -5 -5 -5 -4 -3 -2 -1 -1 0 1 1 1 2 2 2 3 3 4 4 3 2 -2 -3 -6 -6 -7 -7 -6 -5 -6 -7 -7 -7

GFSCGP_850_temp_003.txt.gz
Temp
15 12 12 15 13 15 15 14 13 16 17 15 16 15 16 16 15 15 18 20 20 20 21 20 20 20 19 17 16 14 13 12 12 11 10 9 10 11 11 11 11 10 10 9
13 12 15 15 13 14 14 14 14 16 15 14 14 15 15 13 15 17 17 18 19 18 19 19 19 20 18 17 15 13 12 12 12 11 11 11 11 10 10 10 10 10 9 9
15 14 14 14 14 14 15 14 15 15 15 13 13 13 13 13 14 17 18 19 19 18 19 19 19 20 18 16 15 14 13 12 12 12 10 9 8 8 9 9 9 9 9 9
12 15 15 13 14 15 16 14 15 13 14 14 13 15 14 14 13 13 16 21 19 20 20 19 19 19 18 16 15 13 13 12 11 11 10 10 11 11 11 11 10 9 8 8
14 16 12 13 15 14 15 14 14 14 12 11 13 11 16 14 14 15 16 19 21 21 20 19 19 19 18 16 15 13 12 12 11 11 10 10 10 10 10 10 9 8 8 7
11 13 14 13 12 13 13 13 13 12 9 11 11 13 15 13 15 15 16 20 23 23 19 19 19 18 16 15 13 12 12 12 12 12 11 10 10 10 9 9 8 8 8 7
12 11 11 13 13 11 12 11 8 9 7 12 13 10 17 16 15 15 16 21 24 24 20 20 18 17 16 14 13 12 12 12 12 12 13 12 10 9 9 9 8 8 8 7
12 15 10 10 13 12 9 11 8 10 12 15 6 11 15 15 16 18 21 23 23 20 20 19 18 17 17 15 14 13 13 12 13 14 14 13 11 9 8 8 8 8 8 7
11 13 12 9 11 12 11 10 13 9 1 7 15 14 15 15 14 13 15 15 18 20 20 18 17 17 17 16 16 16 15 15 14 15 14 13 11 10 9 8 8 6 7 6
14 13 13 11 11 12 11 11 10 8 10 8 14 13 16 16 18 16 13 11 16 18 17 17 17 17 17 16 16 15 15 15 14 14 14 13 12 11 9 7 7 6 5 5
10 12 13 10 9 11 9 10 10 11 9 13 13 15 17 16 17 16 13 13 15 17 18 18 18 17 17 16 15 15 14 14 13 13 13 12 12 11 9 8 6 5 4 4
9 9 8 10 11 10 11 11 12 12 11 8 11 14 17 13 15 11 14 17 19 19 19 19 18 18 18 17 16 16 15 14 15 13 11 11 10 9 8 7 5 4 3 3
8 5 6 7 11 10 11 10 11 12 8 10 9 11 16 16 15 14 14 17 17 17 18 19 19 18 18 18 17 17 16 15 14 13 12 9 9 8 8 6 4 2 2 2
9 5 6 9 11 11 9 9 9 11 10 12 11 12 14 14 15 16 16 17 17 17 17 18 18 18 17 17 16 16 16 15 15 14 12 10 9 8 7 6 3 1 1 1
9 6 6 7 8 9 9 8 10 9 10 10 11 11 12 13 14 15 16 16 16 16 16 17 16 17 16 16 15 15 15 14 14 13 11 10 9 7 5 4 2 1 0 1
9 7 8 7 6 6 6 9 9 9 9 10 10 11 13 14 14 14 14 15 14 15 15 15 16 16 16 16 15 15 15 14 13 12 11 9 8 7 5 3 1 0 -0 -0
7 5 6 7 7 7 7 7 8 9 9 9 9 11 13 13 13 13 14 14 14 14 15 15 15 15 15 14 14 14 14 13 12 12 10 9 7 5 4 2 0 -0 -0 -1
5 4 5 7 6 7 7 8 7 8 9 10 10 11 12 12 13 13 14 13 13 13 13 13 14 14 14 14 12 12 12 11 11 11 10 8 6 5 3 1 -0 -1 -1 -1
5 5 6 6 7 8 9 8 8 8 8 10 9 10 10 11 11 11 11 8 9 9 11 12 13 14 14 14 12 11 11 11 10 10 10 8 7 5 3 1 -1 -1 -2 -2
4 6 7 7 6 6 10 8 9 9 7 0 0 1 1 3 5 5 3 3 3 5 5 6 9 11 12 13 12 11 11 11 11 11 10 8 6 4 3 1 -1 -2 -2 -2
4 4 5 5 6 6 2 1 4 5 1 -1 -1 -1 -1 0 0 0 0 0 2 3 4 5 6 6 7 8 9 9 9 10 10 10 8 6 5 3 1 -0 -2 -3 -3 -3
1 0 1 3 4 5 1 1 -1 -2 -1 -2 -2 -2 -2 -2 -1 -1 -0 0 1 3 3 4 4 5 6 6 6 7 7 8 7 7 6 5 3 1 -1 -3 -3 -4 -4 -4
-2 -2 -3 -2 -2 -2 -0 1 1 -2 -3 -3 -3 -3 -4 -3 -2 -2 -2 -2 -1 -1 1 3 2 4 4 4 5 5 6 5 5 5 4 3 2 -0 -2 -3 -4 -4 -5 -5
-3 -1 -2 -3 -1 -0 0 0 0 -2 -3 -4 -5 -4 -4 -4 -5 -5 -4 -3 -3 -2 -1 -1 1 1 2 4 3 3 4 4 4 3 2 1 -0 -2 -3 -5 -5 -5 -5 -5
-4 -2 -5 -3 -2 -1 -0 -0 -3 -4 -4 -5 -6 -7 -7 -8 -8 -8 -7 -7 -6 -5 -3 -2 -3 -1 0 -0 2 1 1 2 3 3 3 2 -2 -3 -4 -5 -5 -5 -5 -4
-2 -3 -3 -3 -1 -4 -3 -4 -6 -7 -9 -9 -9 -9 -8 -10 -10 -10 -10 -10 -9 -9 -7 -6 -5 -4 -3 -1 -0 0 0 1 1 0 -0 -1 -1 -2 -4 -6 -7 -7 -6 -6

GFSCGP_850_temp_006.txt.gz
Temp
14 11 11 15 11 15 14 12 12 14 16 14 13 14 15 17 16 14 16 18 19 21 23 22 22 20 19 19 19 18 17 16 14 13 11 10 11 11 11 11 11 11 11 11
12 10 13 14 13 12 12 13 14 15 14 12 14 14 16 14 16 17 17 18 19 21 23 22 21 20 19 19 19 18 16 16 15 13 12 11 12 12 11 11 11 10 10 10
14 14 12 13 13 13 12 12 14 13 14 12 11 13 12 13 15 16 16 18 19 21 20 22 21 20 19 19 19 19 16 16 14 13 11 11 10 9 10 10 10 10 10 9
10 13 13 11 12 13 14 13 13 12 12 13 13 14 14 14 13 13 15 18 19 22 21 22 21 20 20 20 19 18 16 14 13 12 12 12 12 12 12 11 11 10 9 9
13 14 12 11 14 12 14 14 13 13 10 10 10 10 15 13 13 14 16 19 22 23 23 23 21 21 20 19 19 17 15 14 13 12 11 11 11 11 12 11 10 9 9 9
10 12 12 12 12 11 12 13 11 8 9 11 12 11 15 12 14 15 15 19 22 24 25 22 20 20 20 19 18 16 14 13 13 12 11 11 11 12 11 11 10 9 9 8
11 10 11 12 13 11 12 11 8 8 6 10 12 9 17 16 16 14 16 20 23 23 24 21 20 21 20 19 18 15 14 13 13 12 12 12 12 12 12 11 10 10 9 8
11 13 11 10 12 11 10 12 11 9 11 15 6 10 14 14 15 18 17 18 19 19 20 21 22 22 20 19 17 15 14 14 13 13 14 13 13 12 12 11 10 9 9 8
10 12 11 10 11 12 10 9 12 9 -0 5 14 13 15 15 14 14 15 16 16 19 18 20 21 20 20 18 17 16 15 15 14 13 12 13 13 12 12 12 10 8 8 8
12 11 12 11 11 11 10 11 9 7 9 8 11 12 15 14 15 12 12 14 16 15 17 17 18 18 18 18 17 16 16 16 15 12 13 12 13 13 11 11 10 8 7 6
10 9 10 10 9 11 9 10 10 10 8 13 12 13 13 13 13 12 13 17 17 14 17 18 19 18 17 17 17 16 16 15 14 14 14 13 13 13 11 11 10 9 7 6
9 8 7 9 10 8 9 11 12 12 10 8 10 12 14 15 14 14 14 17 18 16 18 18 18 18 18 18 18 18 17 16 16 16 15 14 13 13 11 11 10 9 7 5
9 7 9 8 8 8 8 10 11 11 10 11 10 10 15 15 14 14 13 15 16 18 17 18 16 16 16 17 18 18 16 15 16 16 14 13 12 11 11 10 9 8 6 4
9 8 9 9 11 10 9 8 8 11 11 11 11 12 14 14 14 15 15 15 14 15 16 16 16 17 17 17 17 17 17 17 17 16 14 14 13 12 11 10 8 7 6 4
8 7 6 7 9 10 10 10 11 10 11 10 12 12 13 14 14 14 15 15 14 14 14 14 15 15 15 16 16 16 17 16 16 15 15 15 14 12 9 8 7 6 5 4
4 6 6 7 7 6 7 9 9 10 10 10 10 10 13 13 13 13 13 14 14 13 11 10 11 13 14 14 15 16 16 16 15 15 15 14 13 12 10 8 7 5 3 2
3 4 5 6 5 5 5 7 6 8 9 9 8 10 7 6 7 10 10 3 2 2 2 2 3 5 7 10 12 14 15 15 14 14 13 13 13 11 10 8 6 4 3 2
3 3 4 4 5 5 7 6 7 7 8 9 6 1 -0 -0 0 1 1 -0 -1 0 0 1 2 3 4 6 9 10 12 13 12 12 12 11 10 9 8 6 5 3 2 2
4 4 4 4 5 7 8 5 3 3 4 -1 -1 -1 -1 -2 -0 2 -1 -1 -0 0 0 1 2 2 3 4 5 8 10 10 10 11 11 11 10 9 8 6 4 3 2 1
3 3 3 2 1 3 -0 -1 -1 0 3 -3 -2 -2 -2 -2 -3 -2 -2 -2 -2 -1 -1 -1 1 2 2 3 3 5 6 8 10 10 10 9 8 7 6 4 3 2 1 -0
-7 -6 -3 -0 1 2 -1 -0 2 1 -2 -2 -3 -3 -2 -2 -2 -2 -3 -2 -2 -3 -3 -2 -1 -1 3 2 1 3 4 5 6 7 6 6 6 5 4 2 1 1 -1 -2
-3 -3 -4 -4 -4 -2 -1 -1 -2 -1 -1 -2 -3 -3 -4 -4 -4 -3 -3 -4 -4 -4 -4 -4 -3 -3 -2 1 2 1 1 3 4 4 4 3 3 3 2 1 1 -1 -2 -3
-5 -4 -6 -4 -3 -1 -1 -1 -1 -2 -3 -3 -5 -5 -6 -6 -6 -6 -6 -6 -6 -6 -6 -5 -6 -3 -3 -4 -2 2 2 -1 1 3 3 2 1 -0 -0 -1 -2 -3 -3 -4
-5 -2 -5 -6 -2 -3 -1 -1 -2 -4 -4 -4 -5 -6 -7 -8 -7 -7 -8 -8 -7 -7 -7 -7 -7 -6 -4 -2 -5 -5 -1 -2 -1 -0 2 3 1 0 -0 -1 -3 -4 -4 -5
-5 -4 -5 -4 -3 -2 -2 -1 -3 -3 -4 -5 -5 -6 -7 -9 -9 -10 -10 -10 -9 -9 -8 -9 -9 -8 -5 -5 -4 -5 -5 -4 -3 -2 -1 -0 1 1 -1 -1 -2 -2 -3 -3
-3 -3 -3 -4 -1 -2 -2 -2 -3 -5 -7 -8 -9 -9 -8 -10 -10 -10 -10 -10 -11 -11 -12 -11 -10 -10 -9 -10 -7 -4 -7 -6 -4 -4 -4 -3 -1 -2 -2 -2 -3 -6 -8 -7

GFSCGP_850_temp_009.txt.gz
Temp
13 10 11 14 11 14 13 11 10 12 14 13 12 13 14 16 16 16 16 16 17 19 22 22 22 21 21 20 20 20 19 18 17 16 14 12 12 11 11 11 11 11 11 11
10 9 12 13 12 11 10 11 12 14 14 12 12 13 13 13 14 16 17 17 17 18 21 23 21 21 21 20 19 19 18 17 17 16 15 13 13 12 11 11 10 10 10 10
13 13 11 11 11 12 10 11 13 13 12 10 10 13 13 12 13 15 17 17 18 19 21 22 21 21 19 19 19 19 19 18 16 15 14 13 11 10 10 9 9 10 10 10
10 12 12 10 10 11 13 11 12 11 11 12 13 14 15 15 15 14 15 17 18 21 22 23 22 21 21 21 20 19 18 17 15 14 14 14 14 13 13 12 11 10 10 9
12 12 11 10 12 10 12 13 11 11 9 9 10 8 14 13 14 13 13 17 22 22 23 23 23 21 22 21 20 19 18 17 15 14 14 14 13 13 13 12 11 10 10 9
9 11 11 11 11 9 12 12 10 6 8 9 10 11 14 12 14 15 14 20 21 20 21 20 21 21 21 22 21 20 18 17 15 14 13 13 13 13 12 12 11 10 9 9
11 10 10 12 12 10 12 10 8 8 6 10 10 9 17 16 17 13 16 17 19 19 19 20 19 19 19 22 20 20 18 17 16 14 13 13 13 12 12 12 12 11 10 10
10 13 10 9 11 11 8 9 7 7 9 14 6 10 16 15 14 15 16 16 16 19 19 17 18 18 18 19 18 18 18 16 16 15 14 13 12 12 11 11 11 11 11 11
9 10 10 9 10 12 9 9 12 9 2 5 13 12 14 12 15 15 13 14 16 18 19 18 16 17 18 17 17 17 16 16 14 15 14 13 12 11 11 11 10 10 10 10
12 10 11 9 10 10 10 10 9 6 8 9 11 13 14 14 16 14 11 13 17 18 18 17 17 17 17 17 17 17 15 15 15 14 14 14 13 12 12 11 10 10 10 10
9 8 10 10 9 11 8 8 9 9 8 11 11 11 15 14 12 12 11 14 16 16 17 17 17 18 18 18 17 17 18 18 17 16 15 14 13 13 12 13 11 11 10 10
8 7 7 8 8 8 8 9 9 8 10 10 12 12 15 15 14 11 12 13 14 15 16 16 16 17 16 16 16 16 16 17 18 18 17 15 13 12 11 13 13 11 10 10
8 7 8 7 7 5 5 8 8 10 9 9 9 11 14 15 15 15 13 14 14 15 15 15 15 14 13 13 13 14 14 14 15 16 16 14 12 12 12 12 12 11 11 10
7 7 7 7 7 9 8 8 9 9 8 9 10 11 12 13 14 14 15 12 9 5 5 6 7 6 7 7 8 11 11 11 12 13 14 14 14 14 13 11 11 11 11 9
6 6 6 6 6 6 6 6 6 8 10 9 10 10 11 12 12 7 6 3 1 0 1 1 2 3 5 6 7 8 9 9 8 8 11 13 15 14 12 10 11 10 9 8
4 3 5 5 5 6 5 5 5 5 5 5 6 7 6 -1 -2 0 -1 -0 -0 -0 -0 0 0 1 2 3 3 4 5 6 7 7 7 8 11 11 13 12 10 11 9 6
2 3 2 3 4 4 3 5 6 8 7 4 3 -1 -2 -2 -2 -2 -3 -2 -1 -1 -1 -1 -1 -0 1 1 2 2 3 4 4 6 7 7 7 9 9 10 9 9 6 5
1 1 1 2 2 1 4 5 3 2 -1 -1 -2 -2 -3 -3 -2 -1 -2 -2 -2 -3 -2 -2 -2 -2 -0 1 1 2 2 3 3 3 4 4 4 6 7 8 8 7 6 5
1 1 -1 -4 -4 2 4 0 -2 -2 -2 -2 -3 -3 -3 -3 -1 -0 -2 -2 -3 -3 -3 -3 -3 -4 -3 -1 -0 2 1 2 2 2 1 0 1 2 3 4 4 5 4 4
1 1 1 -7 -2 -2 -1 -2 -1 -0 -0 -2 -3 -3 -4 -4 -3 -3 -2 -3 -4 -4 -3 -3 -3 -3 -3 -2 -2 -1 1 2 1 1 2 1 -0 0 0 1 1 2 1 2
-9 -10 -8 -11 -8 -5 -5 -2 -0 -5 -4 -1 -3 -4 -3 -4 -3 -3 -3 -4 -4 -4 -4 -3 -3 -4 -3 -4 -3 -2 -1 -0 -0 -1 -0 1 1 -2 -1 -2 -2 -1 -0 -1
-4 -9 -11 -13 -11 -6 -1 -2 -3 -3 -1 -1 -3 -3 -4 -4 -4 -5 -5 -5 -5 -4 -4 -6 -6 -6 -4 -4 -4 -4 -3 -2 -1 -1 -3 -2 0 0 -2 -3 -3 -4 -4 -3
-6 -5 -8 -6 -6 -2 0 -1 -1 -2 -2 -2 -3 -3 -5 -5 -5 -5 -6 -5 -5 -6 -5 -5 -6 -5 -4 -5 -5 -4 -3 -4 -4 -4 -4 -3 -2 -1 -0 -2 -4 -5 -6 -5
-5 -2 -5 -6 -2 -2 -2 -1 -2 -2 -3 -3 -3 -4 -6 -7 -7 -8 -8 -7 -6 -5 -5 -7 -6 -6 -5 -5 -4 -4 -5 -6 -6 -7 -5 -5 -4 -3 -2 -1 -1 -4 -5 -6
-4 -5 -5 -5 -2 -2 -2 -2 -2 -2 -2 -3 -5 -6 -7 -9 -8 -9 -10 -9 -10 -10 -10 -10 -9 -8 -6 -6 -5 -7 -8 -8 -8 -8 -8 -6 -5 -4 -3 -3 -3 -2 -2 -2
-3 -3 -4 -4 -2 -2 -2 -2 -2 -3 -4 -5 -7 -7 -8 -10 -10 -10 -10 -10 -11 -12 -12 -13 -13 -13 -11 -10 -7 -7 -9 -11 -11 -11 -9 -11 -8 -6 -5 -4 -5 -5 -5 -6

GFSCGP_850_temp_012.txt.gz
Temp
13 10 10 13 10 13 12 11 10 10 12 12 14 14 14 14 14 15 16 15 17 16 21 21 22 21 21 20 19 19 19 20 18 17 17 15 15 14 12 12 11 11 11 11
9 8 11 12 12 11 10 10 11 12 12 10 11 12 13 14 14 15 15 16 16 18 19 21 21 20 20 20 20 19 19 19 19 18 17 15 15 15 13 12 11 11 10 10
11 12 11 10 11 11 9 9 12 11 11 9 8 11 10 11 12 14 15 16 16 18 20 21 19 19 19 21 20 19 18 18 18 17 15 14 13 12 12 11 10 10 10 10
9 10 11 9 10 10 12 10 11 10 10 9 11 12 12 13 13 12 14 16 19 20 18 19 21 22 21 20 21 20 18 16 17 17 16 15 15 15 15 14 13 11 11 10
11 11 11 10 10 9 11 12 10 10 9 8 10 8 14 12 13 12 12 18 18 19 19 20 20 21 21 20 20 20 19 17 16 15 15 15 15 14 14 14 13 11 10 10
8 10 10 11 10 9 11 11 9 5 7 8 9 9 12 12 14 16 15 17 20 18 19 19 19 20 19 18 19 21 20 19 16 14 14 14 13 13 14 13 12 12 10 9
10 9 9 11 11 10 10 9 7 7 5 9 9 8 14 15 14 14 13 17 19 18 18 18 18 18 18 17 16 18 17 17 16 14 13 13 13 13 13 14 13 12 11 10
10 12 10 9 10 11 7 9 7 8 8 13 4 9 14 13 15 17 16 17 17 15 16 16 18 18 17 16 15 16 16 16 16 15 15 13 12 12 12 12 12 12 11 11
9 9 10 8 10 11 9 8 10 9 5 6 12 11 14 12 11 12 13 15 15 15 16 16 17 17 17 18 17 16 15 15 15 15 13 13 14 13 12 12 11 11 11 10
11 11 10 10 9 9 10 9 9 6 8 7 10 11 12 14 13 13 13 13 14 16 16 17 14 14 13 13 12 13 14 14 14 14 15 14 13 13 13 12 11 11 11 10
9 8 9 8 8 9 8 9 8 8 8 9 9 11 14 14 12 10 10 14 15 14 11 11 10 10 10 10 10 10 10 10 10 9 9 10 12 11 11 11 11 11 10 10
8 7 7 7 7 9 8 10 9 9 8 7 9 10 11 13 13 13 10 5 4 4 3 5 5 5 6 6 8 7 8 8 9 11 10 9 9 10 9 10 10 10 10 10
7 6 7 6 7 4 6 7 8 8 8 7 7 8 12 12 12 0 2 1 0 1 2 3 3 3 3 2 3 4 4 4 5 6 8 9 9 8 8 9 9 8 9 10
5 4 6 7 8 8 7 7 7 5 6 7 6 6 9 7 5 0 0 -0 -0 -0 -0 -0 0 1 1 2 2 2 2 2 3 4 4 5 8 9 7 6 7 7 8 7
4 5 6 6 5 4 3 3 5 5 6 5 6 6 4 -0 -2 -2 -2 -2 -2 -2 -1 -1 -1 -0 1 2 2 2 2 2 2 2 3 4 6 7 7 6 7 6 6 8
2 2 2 2 3 4 4 4 4 4 4 5 5 4 -1 -2 -2 -2 -3 -4 -3 -3 -3 -2 -2 -1 -1 0 1 1 1 2 2 2 2 2 2 4 4 4 5 5 4 5
1 2 1 2 3 1 1 3 3 4 5 2 2 -2 -4 -3 -2 -1 -2 -3 -2 -3 -4 -3 -3 -2 -1 -1 -1 -1 -0 0 1 2 2 2 2 2 2 3 2 4 3 3
1 1 -0 1 -0 0 3 1 0 -1 -1 -2 -3 -4 -4 -3 -2 -2 -2 -2 -3 -3 -4 -4 -3 -3 -3 -2 -2 -1 -1 -1 -1 -0 1 0 0 1 1 1 2 -0 0 1
0 0 -4 -3 -6 -1 2 -2 -2 -1 -3 -3 -2 -2 -3 -3 -4 -2 -1 -2 -3 -4 -4 -4 -4 -3 -3 -3 -3 -3 -2 -2 -1 -1 -1 -0 -1 -2 0 1 0 -0 -1 -3
-1 -1 -0 -7 -3 -7 -1 -2 -1 -2 -4 -5 -4 -4 -5 -4 -5 -4 -2 -2 -2 -3 -4 -4 -4 -5 -4 -3 -3 -3 -3 -3 -3 -3 -3 -2 -1 -3 -3 -0 0 -1 -2 -4
-10 -12 -5 -7 -8 -7 -5 -3 -2 -6 -5 -4 -2 -2 -4 -5 -4 -2 -3 -3 -3 -4 -4 -4 -4 -5 -4 -4 -5 -4 -4 -3 -4 -3 -3 -3 -2 -2 -4 -4 -1 -1 -2 -3
-4 -9 -12 -14 -11 -7 -2 -2 -3 -3 -1 -1 -2 -2 -3 -3 -3 -3 -3 -4 -4 -4 -5 -4 -5 -5 -4 -5 -6 -6 -4 -5 -4 -4 -4 -3 -4 -3 -2 -4 -4 -2 -2 -3
-6 -5 -8 -7 -7 -3 -2 -2 -1 -1 -2 -2 -3 -3 -3 -3 -4 -4 -5 -5 -5 -6 -6 -6 -7 -6 -5 -5 -6 -7 -6 -7 -6 -4 -4 -4 -4 -5 -4 -5 -5 -5 -2 -4
-5 -3 -3 -3 -2 -2 -2 -1 -1 -1 -2 -2 -2 -2 -4 -4 -5 -6 -7 -7 -7 -7 -8 -8 -8 -8 -7 -6 -7 -7 -8 -10 -10 -8 -6 -5 -6 -5 -7 -6 -7 -6 -6 -4
-3 -5 -6 -4 -2 -2 -2 -2 -1 -2 -2 -2 -3 -3 -5 -6 -7 -9 -9 -8 -9 -9 -9 -10 -11 -11 -9 -10 -9 -9 -9 -11 -12 -12 -10 -9 -9 -8 -9 -10 -8 -7 -6 -7
-3 -3 -4 -4 -2 -2 -2 -2 -2 -3 -3 -4 -5 -6 -7 -9 -10 -10 -10 -10 -11 -11 -11 -13 -13 -14 -13 -14 -13 -14 -15 -15 -15 -13 -12 -13 -14 -12 -12 -12 -11 -9 -8 -7

GFSCGP_850_temp_015.txt.gz
Temp
12 9 10 12 10 12 12 11 10 10 11 11 13 13 13 13 13 14 15 15 15 17 20 18 18 19 20 20 20 19 18 19 18 18 17 16 17 16 16 15 14 13 12 12
9 8 10 11 10 10 10 10 10 11 11 9 10 12 14 14 14 15 15 15 16 17 19 19 18 19 20 21 21 20 19 18 18 18 18 17 17 16 15 15 14 12 12 12
10 12 10 10 10 10 9 9 11 10 9 9 8 10 10 14 12 15 16 15 17 17 18 18 19 19 20 20 20 20 18 18 18 17 16 16 15 14 15 14 13 12 12 11
8 10 10 9 10 9 11 10 10 9 10 10 10 11 11 13 14 13 14 17 18 17 17 17 18 19 20 20 20 19 19 17 17 16 15 15 16 16 17 15 14 13 12 11
11 10 9 9 10 9 10 12 11 10 8 8 8 8 11 12 13 14 14 18 17 17 15 17 18 18 17 16 17 17 17 15 13 14 15 14 13 14 14 14 14 13 11 10
8 10 10 10 10 9 10 11 8 5 7 8 9 9 12 11 14 15 15 17 15 16 16 16 16 16 16 16 15 15 15 15 12 10 10 11 11 12 12 12 13 13 12 11
10 9 9 10 11 9 10 9 8 8 6 10 8 7 12 13 13 14 14 16 15 15 14 12 14 14 15 16 16 14 13 11 10 10 9 9 9 9 10 11 11 12 12 11
10 12 9 8 10 11 8 10 10 8 8 12 4 10 13 11 14 14 15 14 13 9 9 8 10 11 12 13 14 16 14 10 9 9 9 8 7 7 6 6 8 10 10 12
8 9 9 7 9 11 8 9 10 9 5 6 11 11 14 11 12 11 11 7 3 2 3 4 5 7 7 8 10 10 11 10 8 7 7 8 8 7 7 7 6 7 8 9
10 8 9 9 9 9 9 9 9 7 8 8 10 9 12 11 9 7 2 1 3 5 5 3 3 3 4 4 5 7 6 7 6 7 7 7 7 6 6 7 8 9 8 8
8 6 8 8 7 9 7 8 8 9 7 7 9 10 10 8 3 2 1 1 1 2 3 4 4 4 3 3 4 4 4 5 6 6 6 7 7 6 6 7 7 6 7 7
8 6 7 8 8 7 9 9 9 8 7 6 8 8 11 4 2 1 -0 -0 -0 -0 -0 0 1 1 3 3 2 3 3 3 4 4 4 5 6 6 6 5 5 5 5 6
6 6 7 6 7 5 6 7 7 6 5 6 7 8 8 6 1 1 -1 -2 -2 -1 0 1 1 1 1 1 1 1 2 2 2 3 3 4 5 5 6 6 5 4 3 4
5 5 6 7 8 6 5 5 5 5 6 7 7 7 8 4 -0 -1 -2 -3 -2 -1 -1 -1 -0 1 1 0 -0 0 -0 0 2 2 2 2 3 3 4 4 5 4 4 3
4 5 5 5 5 3 3 3 3 3 4 3 5 5 6 1 -2 -2 -2 -2 -2 -2 -2 -2 -2 -2 -1 0 0 0 0 -0 -0 0 2 1 1 2 2 3 3 4 3 2
1 3 1 1 3 4 3 3 3 3 3 3 4 4 -1 -2 -2 -2 -1 -2 -2 -2 -2 -3 -3 -3 -2 -2 -2 -1 -1 -0 -0 -1 -1 -0 0 1 1 2 2 3 3 3
1 1 2 2 2 0 -1 1 3 3 4 3 2 -2 -5 -4 -2 -2 -2 -2 -2 -2 -3 -3 -3 -3 -3 -3 -3 -3 -2 -2 -2 -2 -1 -1 -1 -1 0 1 1 1 2 1
0 -0 0 1 -4 0 2 -1 1 0 -1 -4 -4 -4 -3 -2 -2 -2 -1 -2 -2 -2 -2 -3 -3 -3 -3 -3 -3 -3 -3 -3 -2 -2 -2 -2 -2 -2 -1 -1 -1 -1 -0 0
-1 -0 -4 -1 -1 0 2 -0 -1 -1 -2 -5 -5 -4 -2 -2 -3 -3 -1 -2 -2 -2 -3 -3 -4 -4 -4 -4 -4 -4 -3 -3 -3 -3 -3 -3 -3 -3 -3 -2 -2 -2 -3 -2
-1 -1 -1 -6 -4 -8 -2 -1 -2 -2 -5 -6 -5 -7 -5 -3 -5 -3 -1 -2 -2 -2 -3 -3 -4 -4 -4 -4 -5 -5 -4 -4 -4 -4 -4 -4 -3 -3 -3 -3 -3 -3 -3 -3
-11 -11 -3 -3 -3 -5 -5 -4 -3 -6 -5 -3 -2 -2 -3 -5 -3 -2 -2 -2 -3 -3 -3 -4 -5 -5 -4 -5 -6 -6 -6 -5 -6 -5 -5 -4 -4 -4 -4 -4 -3 -4 -3 -3
-4 -10 -14 -16 -11 -6 -3 -3 -4 -3 -1 -2 -2 -2 -2 -3 -3 -3 -2 -2 -3 -3 -4 -4 -5 -5 -5 -6 -6 -7 -7 -7 -8 -7 -7 -6 -5 -5 -4 -5 -4 -4 -4 -4
-6 -5 -7 -7 -7 -3 -2 -2 -1 -1 -2 -2 -2 -2 -2 -3 -3 -3 -3 -4 -4 -5 -6 -6 -7 -7 -6 -6 -8 -9 -7 -10 -10 -11 -9 -7 -7 -6 -6 -6 -5 -6 -7 -6
-5 -4 -4 -3 -2 -3 -1 -0 -1 -1 -2 -1 -2 -2 -3 -3 -3 -5 -5 -6 -7 -7 -8 -9 -10 -10 -9 -8 -10 -12 -13 -14 -14 -14 -13 -11 -10 -8 -7 -7 -7 -8 -8 -10
-3 -5 -6 -4 -3 -2 -2 -2 -1 -1 -2 -2 -2 -3 -4 -5 -6 -7 -7 -8 -8 -9 -10 -12 -13 -14 -13 -14 -14 -15 -16 -17 -18 -17 -17 -17 -17 -15 -12 -11 -10 -11 -10 -12
-3 -3 -4 -4 -2 -2 -2 -2 -2 -3 -3 -3 -4 -5 -6 -8 -9 -10 -9 -10 -11 -11 -13 -14 -15 -17 -17 -18 -18 -19 -19 -20 -21 -21 -21 -21 -22 -21 -19 -18 -15 -12 -15 -14

GFSCGP_850_temp_021.txt.gz
Temp
15 17 17 20 20 20 19 19 19 20 20 19 19 18 19 20 20 20 21 21 21 19 16 13 12 13 13 15 15 15 15 14 13 12 11 11 11 10 10 9 8 8 9 11
15 16 18 19 19 16 17 17 18 19 20 19 18 17 18 19 20 21 20 20 19 17 14 11 12 14 15 14 15 15 15 13 11 12 10 9 9 9 8 7 8 7 8 9
16 18 18 17 17 17 18 17 18 17 18 17 17 17 20 20 21 21 20 17 14 13 11 9 8 11 13 14 14 12 12 12 11 10 8 8 9 7 7 6 6 6 6 6
16 17 15 15 15 17 16 18 16 16 15 16 17 15 18 20 21 20 18 15 12 10 8 7 6 9 11 11 11 11 12 11 11 10 9 8 6 6 6 6 5 5 6 6
17 14 14 15 16 16 17 14 15 15 15 15 17 16 19 21 19 18 15 12 9 8 7 6 5 7 8 9 10 10 11 12 12 10 8 7 6 6 5 5 5 5 5 6
15 13 14 16 16 15 14 14 15 15 15 14 18 17 18 19 18 17 13 10 9 7 6 5 5 5 6 7 7 7 8 8 9 9 9 7 6 6 5 4 4 4 6 6
17 15 14 13 14 14 13 14 14 15 15 15 17 15 17 18 18 16 12 9 7 6 6 5 4 3 2 2 4 7 8 9 8 7 7 7 7 6 5 5 4 3 3 3
15 15 14 14 14 15 15 15 14 12 14 15 15 15 17 18 13 11 9 8 6 5 4 4 3 3 2 3 5 6 6 7 7 7 6 6 6 6 5 5 5 5 3 3
14 15 16 13 14 13 15 13 15 12 11 11 14 16 18 17 12 10 9 7 6 5 4 3 3 2 1 1 1 2 4 4 5 5 5 5 5 5 4 5 4 4 3 3
12 11 14 12 12 12 13 12 12 12 9 10 13 14 16 16 14 10 8 6 5 4 4 3 2 1 1 1 1 2 2 3 3 3 4 3 4 4 4 4 4 4 4 3
11 9 12 12 12 12 13 11 12 12 11 10 10 13 12 11 11 8 6 4 3 3 2 2 1 0 0 1 1 2 2 2 2 2 2 2 2 2 2 3 3 3 3 3
11 10 8 10 13 13 12 11 11 10 9 10 10 9 11 8 6 5 4 3 2 1 1 1 1 -0 0 1 2 1 1 1 0 0 0 1 1 1 1 1 2 2 3 2
9 7 6 8 12 8 8 10 10 9 8 7 8 10 8 5 4 2 2 1 1 0 1 1 0 -0 -1 -1 -1 -1 -0 0 0 -0 -0 -0 -0 -0 0 0 1 1 1 2
6 5 6 7 9 10 8 7 8 6 6 7 8 7 7 6 4 2 2 2 1 1 0 -0 -0 -1 -1 -1 -1 -1 -1 -1 -1 -1 -1 -1 -1 -1 -2 -2 -1 -1 -0 -0
7 5 6 7 8 8 6 6 7 7 7 6 7 7 8 9 8 4 3 2 1 1 0 0 -1 -1 -1 -2 -2 -1 -1 -1 -1 -1 -1 -2 -2 -2 -1 -1 -2 -2 -1 -1
6 4 5 3 5 5 5 6 7 7 7 6 7 7 10 6 3 3 3 2 2 2 1 -0 -1 -2 -2 -3 -3 -4 -3 -3 -3 -2 -2 -2 -2 -2 -2 -2 -2 -2 -2 -2
4 3 3 2 4 4 2 4 5 6 7 7 6 5 0 2 2 2 1 1 1 1 0 -0 -1 -1 -2 -3 -4 -4 -5 -4 -4 -4 -4 -3 -3 -3 -3 -3 -2 -2 -2 -3
2 2 2 1 1 0 4 7 6 5 5 4 2 -1 0 1 1 1 1 0 0 0 -0 -0 -1 -2 -3 -3 -4 -5 -5 -5 -5 -5 -5 -5 -5 -4 -4 -4 -4 -4 -4 -3
3 2 1 -0 1 3 4 4 5 4 3 4 2 1 1 0 0 1 2 1 -0 -1 -1 -2 -2 -2 -4 -5 -5 -6 -5 -6 -7 -8 -8 -8 -8 -8 -6 -5 -5 -5 -5 -5
2 2 1 1 -0 -0 3 4 1 2 1 -0 -1 -1 -1 -1 -1 1 1 -1 -1 -1 -2 -2 -3 -3 -4 -5 -6 -6 -7 -8 -8 -9 -10 -10 -10 -10 -10 -9 -8 -7 -6 -6
-0 -1 -1 -0 -0 1 3 -0 0 -1 1 -1 -1 -1 -1 -1 -0 -1 -1 -2 -2 -2 -3 -3 -4 -4 -5 -6 -7 -7 -8 -9 -10 -11 -11 -12 -12 -13 -13 -13 -13 -13 -12 -12
0 0 -1 -2 -2 -2 1 -1 -0 2 0 -0 -1 -0 -0 -0 -1 -1 -2 -2 -2 -3 -4 -5 -5 -5 -6 -7 -7 -7 -7 -10 -11 -12 -13 -14 -15 -16 -16 -17 -17 -17 -17 -17
-2 0 -0 -0 0 2 0 -0 0 0 -0 -0 -0 -0 -1 -1 -2 -2 -2 -3 -4 -5 -5 -6 -6 -6 -6 -7 -8 -9 -9 -11 -11 -12 -13 -15 -16 -17 -19 -19 -19 -19 -19 -19
1 1 -0 -1 0 1 0 0 0 0 -0 -0 -1 -1 -2 -2 -2 -3 -4 -5 -6 -6 -7 -7 -7 -8 -7 -8 -9 -11 -12 -14 -15 -16 -16 -18 -19 -20 -21 -22 -22 -21 -21 -20
1 1 -0 -1 0 -0 -0 -0 -1 -1 -1 -1 -2 -2 -2 -4 -4 -5 -6 -7 -7 -8 -8 -8 -8 -8 -8 -10 -11 -13 -15 -16 -17 -19 -20 -21 -22 -23 -23 -23 -23 -23 -22 -22
0 0 -0 -1 1 0 0 0 -0 -1 -1 -1 -2 -3 -3 -4 -5 -6 -7 -8 -8 -9 -9 -9 -10 -10 -11 -12 -13 -14 -16 -18 -19 -21 -22 -23 -23 -23 -23 -23 -23 -23 -22 -21

GFSCGP_850_temp_024.txt.gz
Temp
15 14 13 15 16 17 16 16 15 16 18 16 16 16 16 18 18 18 18 20 15 13 12 12 11 11 12 12 14 14 13 13 12 12 11 10 10 9 9 9 9 9 9 9
13 13 16 17 17 16 15 14 14 16 17 16 15 14 16 17 17 19 19 16 13 11 11 11 11 11 12 13 12 13 13 12 11 10 9 9 9 9 8 8 8 8 8 8
14 16 17 17 16 15 15 14 15 15 15 15 15 14 15 17 19 15 14 12 10 9 9 9 10 11 11 12 13 13 13 12 11 9 9 9 9 9 8 8 7 7 7 7
15 15 15 15 14 15 14 16 16 14 14 13 14 12 16 16 16 13 11 10 9 8 7 7 7 8 9 9 10 10 10 11 11 10 9 7 7 7 7 6 6 6 6 5
15 13 14 14 15 16 15 13 14 14 12 11 13 11 16 16 14 11 10 9 8 6 6 5 6 6 6 7 9 9 9 7 7 7 8 8 8 7 6 6 5 5 6 5
13 13 14 15 15 15 13 13 13 12 12 9 14 14 14 15 13 11 10 9 7 6 5 4 4 6 7 7 7 7 7 8 7 7 7 6 7 8 7 6 5 5 5 5
14 13 13 14 13 13 12 12 9 10 8 9 13 12 14 16 13 12 9 8 6 5 4 4 5 6 6 6 6 6 6 6 6 5 5 5 5 5 6 6 5 5 4 3
12 13 12 12 14 13 12 13 9 8 8 10 12 9 13 13 11 10 8 6 5 4 4 3 3 3 3 3 3 4 5 5 5 5 5 4 5 5 5 5 5 4 4 4
13 13 12 13 13 13 13 11 13 9 6 6 10 13 14 11 8 8 7 6 5 4 4 3 2 2 1 1 1 2 2 3 3 3 3 3 4 4 4 4 4 3 3 4
11 10 13 11 12 11 12 11 10 9 8 6 10 11 12 10 8 7 5 5 4 4 3 2 2 1 1 0 0 1 1 1 1 2 2 2 2 2 3 3 3 3 3 3
10 9 10 11 11 11 10 10 10 10 8 7 8 9 9 7 7 5 4 4 3 3 2 2 2 1 0 0 0 0 1 1 1 1 1 1 1 1 1 2 2 2 2 2
10 9 5 8 10 10 9 9 9 7 7 8 9 9 7 6 5 5 4 4 3 2 1 1 1 -0 -0 -0 0 -0 -0 0 0 -0 -1 0 0 0 0 -0 -0 0 1 1
8 6 4 5 9 8 9 9 8 8 5 6 6 7 6 5 4 4 4 4 3 1 1 1 0 -0 -0 -0 0 0 0 0 -0 -0 -1 -1 -1 -1 -1 -1 -2 -2 -1 -1
7 6 4 4 7 8 5 6 6 6 5 5 5 6 8 7 5 4 3 2 2 1 1 0 0 -0 -1 -1 -0 -0 -1 -1 -1 -1 -1 -1 -1 -2 -2 -2 -2 -1 -2 -2
6 3 4 5 6 5 4 4 5 5 5 4 5 6 7 8 6 4 4 2 2 1 1 1 0 -0 -1 -1 -1 -1 -2 -2 -2 -2 -2 -2 -2 -2 -2 -2 -2 -2 -2 -2
5 0 2 -0 3 3 3 3 3 4 4 4 5 5 7 3 3 3 3 2 2 1 1 1 0 -1 -1 -2 -2 -3 -3 -3 -3 -3 -3 -3 -3 -3 -3 -3 -3 -3 -3 -3
2 -0 -3 -2 2 0 -3 1 2 3 4 4 3 2 -2 0 2 1 1 1 0 0 0 0 0 -0 -1 -2 -3 -3 -4 -5 -5 -6 -5 -4 -4 -4 -4 -4 -4 -4 -4 -4
-0 -2 -3 -4 -4 -4 2 5 4 2 3 1 -1 -4 -2 0 1 1 0 1 1 0 -0 -1 -1 -1 -1 -2 -3 -4 -5 -6 -6 -6 -7 -7 -7 -7 -6 -6 -6 -5 -5 -4
2 0 -1 -4 -6 -0 2 2 2 1 0 0 -1 -2 1 0 -0 0 1 0 -0 -1 -1 -1 -2 -2 -3 -3 -4 -5 -5 -6 -7 -7 -7 -8 -9 -9 -9 -9 -9 -9 -10 -8
1 1 -1 -6 -5 -7 2 1 2 2 -2 -1 -0 -3 -1 -1 -5 -4 0 -0 -0 -1 -2 -2 -2 -3 -3 -4 -5 -5 -6 -7 -7 -8 -8 -9 -10 -11 -12 -13 -13 -13 -14 -14
-7 -6 -3 -2 -3 -3 -1 -1 1 -5 -2 -1 -0 -1 -1 -4 -1 -0 -1 -1 -1 -2 -2 -3 -3 -4 -5 -5 -6 -6 -7 -7 -8 -9 -10 -10 -11 -12 -13 -14 -15 -16 -16 -17
-3 -6 -7 -7 -6 -3 1 -1 -2 -1 0 0 0 0 -1 -1 -1 -1 -1 -1 -2 -2 -2 -3 -3 -5 -5 -6 -6 -7 -7 -8 -9 -9 -10 -11 -12 -14 -15 -16 -17 -19 -20 -20
-4 -2 -6 -3 -4 1 1 1 2 1 0 0 -0 -0 -0 -1 -1 -1 -2 -2 -2 -3 -3 -4 -4 -5 -6 -6 -7 -7 -7 -8 -9 -11 -12 -13 -14 -16 -17 -19 -20 -21 -22 -22
-2 0 -2 -3 -1 -1 1 1 1 1 0 0 -0 -1 -1 -1 -2 -2 -2 -3 -3 -4 -5 -5 -5 -6 -6 -7 -7 -8 -10 -11 -12 -13 -14 -15 -16 -18 -20 -21 -21 -22 -22 -23
-1 -2 -3 -2 -1 -0 0 0 0 -0 -0 -0 -0 -1 -1 -2 -2 -3 -3 -4 -4 -5 -6 -6 -7 -7 -7 -8 -8 -10 -12 -13 -14 -14 -15 -17 -18 -20 -21 -21 -22 -23 -22 -22
-1 -1 -1 -2 0 -0 0 1 0 0 -0 -1 -1 -1 -2 -2 -3 -4 -5 -5 -6 -6 -7 -7 -7 -7 -8 -9 -10 -12 -13 -14 -15 -16 -17 -18 -21 -22 -22 -23 -23 -22 -22 -21

GFSCGP_850_temp_027.txt.gz
Temp
14 11 10 12 11 13 15 14 13 13 15 14 14 13 13 16 17 15 14 10 9 9 9 11 12 12 12 13 13 13 13 12 12 12 11 11 10 10 9 9 9 9 9 9
11 10 12 13 13 14 14 13 12 13 15 15 13 13 13 14 14 15 11 9 8 8 9 10 11 11 11 11 11 12 12 11 12 11 10 9 9 9 9 9 9 8 8 8
10 13 13 14 14 14 14 13 12 13 13 13 13 11 13 14 11 9 9 8 7 7 6 7 8 8 9 9 10 10 11 11 10 9 9 9 8 8 8 8 8 7 7 7
11 13 14 13 12 13 12 13 13 14 12 11 13 9 13 13 10 8 7 6 6 6 6 6 7 7 7 8 9 9 10 10 10 10 10 8 7 8 7 6 6 6 6 6
13 12 13 13 13 13 12 13 13 13 11 11 11 9 10 10 9 7 6 6 5 5 5 5 6 6 6 7 8 8 9 9 9 8 9 8 8 6 6 6 6 5 5 5
12 13 13 13 14 14 12 13 12 11 9 8 10 10 10 12 10 7 6 5 5 5 5 6 6 6 6 7 7 8 8 8 7 8 7 7 7 7 7 6 5 5 4 4
12 12 12 13 13 11 12 10 8 8 6 8 10 10 11 12 10 8 4 4 4 4 5 5 5 5 6 6 6 7 7 7 6 6 6 6 5 6 6 5 5 5 4 3
11 11 11 12 12 11 10 11 7 7 7 7 10 9 11 6 5 4 4 4 4 4 4 4 4 5 6 5 5 4 4 4 5 5 5 4 4 4 3 3 3 3 3 3
10 11 11 12 12 12 12 10 11 8 1 4 8 10 7 6 5 4 4 4 4 3 3 4 4 4 5 5 4 4 3 3 3 3 2 2 3 3 3 2 2 2 2 2
10 9 10 10 11 11 11 11 8 6 5 4 7 9 9 6 4 4 3 4 4 4 4 4 4 3 3 2 2 2 1 1 2 2 2 2 2 1 1 2 2 2 1 1
9 9 8 10 9 9 9 9 9 8 7 5 5 8 8 6 4 3 3 4 5 4 4 3 2 1 1 0 0 0 0 0 -0 -0 -0 -0 0 0 -0 -0 0 1 1 0
9 7 4 7 9 8 9 8 8 6 6 4 7 9 7 4 4 5 4 5 5 4 3 2 1 0 0 0 0 -0 -0 -0 -0 -1 -1 -1 -1 -2 -2 -2 -2 -2 -1 -1
8 5 1 4 7 7 8 8 7 7 4 5 6 6 5 4 4 5 5 5 4 2 2 1 1 0 -0 -0 -0 -0 -1 -1 -1 -1 -2 -2 -3 -3 -3 -3 -3 -2 -2 -2
8 5 3 5 5 5 4 4 5 6 3 1 3 3 6 6 3 4 5 4 3 2 1 1 0 0 -0 0 -0 -0 -0 -1 -1 -2 -2 -2 -3 -3 -3 -3 -3 -3 -3 -3
6 2 4 4 4 4 3 3 4 3 4 2 5 4 5 6 4 5 3 3 2 1 1 1 1 0 0 0 -0 -0 -1 -1 -2 -2 -3 -3 -3 -3 -3 -3 -3 -3 -3 -3
4 0 1 -1 3 3 2 3 3 3 3 3 3 3 5 3 3 2 2 2 1 1 1 1 0 0 -0 -1 -1 -2 -2 -3 -3 -3 -4 -4 -4 -4 -4 -3 -3 -3 -4 -4
2 -1 -4 -3 1 -1 -2 1 2 3 3 2 1 2 -3 -0 1 0 1 1 1 1 0 -0 -0 -0 -1 -1 -2 -2 -3 -3 -4 -5 -5 -5 -5 -5 -5 -5 -5 -5 -5 -5
-1 -3 -5 -7 -7 -4 1 2 2 1 1 -2 -3 -5 -3 -1 0 0 1 1 0 0 -0 -0 -0 -1 -1 -2 -2 -3 -3 -4 -5 -5 -6 -6 -6 -7 -7 -7 -7 -7 -8 -8
1 -0 -6 -5 -7 -3 1 1 2 2 0 -3 -3 -4 -1 -1 -1 -0 1 -0 -0 -0 -0 -1 -2 -2 -2 -3 -3 -4 -5 -5 -6 -6 -6 -6 -7 -8 -8 -9 -10 -10 -11 -11
-1 -0 -1 -12 -6 -6 -2 1 2 -0 -3 -2 -0 -4 -2 -1 -5 -5 -0 -0 -1 -1 -1 -1 -2 -2 -3 -3 -4 -5 -5 -6 -6 -6 -7 -7 -8 -9 -10 -11 -12 -12 -13 -13
-8 -9 -2 -2 -4 -6 -4 -2 1 -5 -2 0 0 -0 -1 -4 -1 0 -1 -1 -1 -1 -2 -2 -2 -3 -3 -4 -5 -5 -6 -6 -6 -7 -7 -8 -10 -11 -12 -12 -14 -14 -15 -16
-4 -6 -9 -10 -10 -4 0 -2 -2 -1 0 1 0 0 0 -0 -0 -0 -1 -1 -1 -2 -2 -2 -3 -3 -4 -5 -5 -6 -6 -7 -7 -7 -8 -10 -11 -12 -13 -14 -15 -16 -18 -19
-3 -3 -6 -4 -5 -1 -0 2 2 2 1 -0 -0 0 -0 -1 -1 -1 -1 -1 -2 -2 -2 -3 -3 -4 -5 -6 -6 -6 -7 -7 -8 -9 -10 -11 -12 -13 -15 -16 -17 -19 -19 -20
-4 -2 -3 -4 -3 -2 1 1 1 1 1 1 0 0 -0 -1 -1 -1 -1 -2 -2 -2 -3 -3 -4 -5 -6 -6 -7 -7 -7 -8 -9 -10 -11 -12 -13 -14 -16 -17 -18 -20 -20 -22
-2 -3 -4 -4 -1 -1 -0 1 1 1 0 0 0 0 -0 -1 -1 -1 -2 -2 -3 -3 -4 -4 -6 -6 -6 -7 -7 -8 -8 -9 -10 -11 -12 -13 -14 -16 -17 -18 -19 -21 -20 -23
-1 -1 -2 -2 -0 -1 0 1 1 1 0 0 0 -0 -1 -1 -2 -2 -3 -3 -4 -5 -5 -6 -7 -7 -7 -8 -7 -9 -10 -10 -11 -12 -13 -14 -15 -16 -18 -20 -20 -18 -20 -21

GFSCGP_850_temp_030.txt.gz
Temp
13 10 10 11 11 13 13 13 12 12 13 13 12 12 13 15 15 12 8 7 6 6 7 8 9 10 10 11 11 11 11 12 12 12 11 11 10 10 9 9 9 9 9 10
10 10 12 12 11 11 12 12 11 12 12 14 12 12 12 12 10 9 7 6 5 5 7 7 8 10 10 10 10 11 11 11 11 10 10 9 9 9 9 8 9 9 9 8
10 13 12 12 12 12 12 12 12 12 12 12 12 11 12 8 7 7 5 5 5 5 6 6 8 8 9 10 10 10 10 10 10 9 8 8 8 8 8 8 8 7 7 7
10 12 13 12 12 12 11 12 12 12 11 11 12 9 10 10 6 5 4 4 4 4 5 5 6 7 7 7 8 9 9 9 9 9 9 9 8 8 7 6 6 7 7 6
12 12 12 12 12 11 12 12 13 13 11 10 10 9 9 7 7 4 3 3 4 4 4 5 5 6 6 7 8 8 8 9 8 8 8 7 7 6 5 6 6 6 6 6
11 12 12 12 12 12 12 12 9 7 7 7 9 9 9 10 9 4 3 3 3 3 3 4 5 6 7 7 8 8 9 8 8 8 8 7 7 6 6 5 5 5 5 5
11 11 12 12 12 11 10 9 8 7 6 8 8 7 9 6 7 5 2 3 3 4 5 5 6 6 7 7 7 8 8 8 8 8 7 7 6 5 5 5 5 4 4 4
10 11 10 11 11 11 9 9 7 7 6 7 7 9 9 3 3 4 4 4 4 4 5 5 6 5 6 6 6 6 6 6 6 5 4 4 4 3 3 2 3 3 3 2
9 10 11 11 12 11 10 9 10 7 -1 3 7 7 5 4 2 2 3 4 4 5 5 5 5 5 5 5 5 4 3 3 3 3 3 2 2 2 2 1 1 1 1 1
10 10 10 10 11 10 10 9 8 5 5 4 6 7 7 4 3 2 2 3 4 4 5 5 4 4 3 3 3 3 3 2 2 2 2 1 1 1 1 0 0 0 0 0
9 9 8 9 8 8 8 8 8 7 5 4 3 6 7 5 4 3 3 5 5 5 5 4 3 3 3 3 2 2 1 1 1 1 1 1 1 0 0 -0 -0 -1 -1 -1
8 7 3 7 8 8 9 7 7 5 5 3 5 8 6 5 4 4 5 6 5 5 4 3 2 2 1 1 1 1 0 0 -0 -0 -1 -1 -1 -1 -1 -1 -1 -1 -1 -1
7 4 1 4 6 7 7 6 6 5 3 2 4 6 4 4 3 5 5 5 5 4 3 2 1 1 0 0 0 -0 -0 -0 -1 -1 -2 -2 -2 -3 -3 -3 -3 -3 -3 -2
8 4 4 6 6 5 5 5 5 5 2 2 4 4 5 3 2 3 5 6 5 4 2 2 1 1 1 0 0 -0 -0 -1 -1 -2 -2 -2 -3 -3 -3 -3 -3 -3 -3 -3
6 5 3 4 4 4 4 4 3 4 4 3 5 4 5 4 3 4 4 4 3 2 1 1 1 1 0 0 0 -0 -1 -1 -2 -2 -3 -3 -3 -3 -4 -4 -3 -3 -3 -4
4 2 2 0 3 3 2 3 2 3 3 3 3 3 5 5 3 2 3 3 2 2 1 1 0 0 0 0 -0 -1 -1 -2 -2 -3 -3 -4 -4 -4 -4 -4 -4 -4 -4 -4
3 -0 -2 -1 -1 -1 -2 -0 2 4 2 2 2 2 -2 0 1 2 2 1 1 1 1 0 0 0 -0 -0 -1 -2 -2 -3 -3 -4 -4 -4 -5 -5 -5 -5 -5 -5 -5 -6
-0 -2 -2 -4 -6 -4 2 1 1 1 1 -2 -3 -5 -2 1 2 2 2 1 1 1 0 0 -0 -0 -1 -1 -2 -2 -3 -3 -4 -4 -5 -5 -5 -5 -5 -6 -6 -6 -7 -7
1 -0 -3 -3 -6 -3 1 1 -0 -0 -0 -3 -2 -4 1 1 -1 -1 0 0 0 0 -0 -0 -0 -1 -1 -2 -2 -3 -3 -4 -4 -5 -5 -5 -6 -6 -6 -7 -7 -8 -9 -9
-1 0 -0 -10 -8 -5 -1 0 1 -0 -3 -3 -0 -2 -2 -2 -5 -4 0 0 -0 -1 -1 -1 -1 -2 -2 -3 -3 -4 -4 -5 -5 -5 -5 -6 -6 -7 -7 -8 -9 -10 -11 -11
-7 -3 -1 -2 -8 -7 -4 -1 1 -4 -2 1 2 2 -1 -4 -1 1 0 0 -0 -1 -1 -1 -2 -2 -2 -3 -4 -4 -5 -5 -5 -6 -6 -6 -7 -8 -9 -9 -10 -11 -12 -13
-4 -5 -6 -7 -5 -5 -1 -2 -2 -0 1 2 2 2 1 1 1 0 -0 -1 -1 -1 -1 -2 -2 -2 -3 -3 -4 -5 -5 -6 -6 -6 -6 -7 -8 -9 -10 -10 -11 -12 -13 -15
-3 -3 -6 -4 -5 -1 -1 1 2 3 3 2 1 2 1 0 0 -0 -0 -1 -1 -1 -2 -2 -3 -3 -4 -4 -5 -5 -6 -6 -6 -6 -7 -8 -9 -10 -11 -11 -12 -13 -15 -17
-4 -3 -4 -5 -3 -2 0 2 3 2 1 1 1 1 0 -0 -0 -1 -1 -1 -1 -2 -2 -2 -3 -4 -5 -5 -6 -6 -6 -7 -6 -7 -8 -9 -10 -11 -11 -12 -14 -15 -15 -17
-3 -4 -5 -5 -2 -1 -1 0 1 1 1 0 0 -0 -0 -0 -1 -1 -1 -1 -2 -2 -3 -3 -4 -5 -6 -6 -7 -7 -7 -7 -7 -8 -9 -10 -11 -11 -12 -13 -14 -15 -16 -19
-2 -1 -2 -3 0 -0 0 1 1 1 0 0 0 0 0 -0 -0 -1 -1 -1 -2 -3 -3 -4 -5 -6 -7 -7 -8 -8 -8 -8 -8 -9 -10 -11 -12 -12 -13 -14 -14 -14 -16 -18

GFSCGP_850_temp_033.txt.gz
Temp
12 10 10 10 10 13 13 11 12 12 13 13 12 11 12 13 8 5 5 5 5 5 5 7 8 8 9 10 11 11 11 11 11 12 12 11 10 9 9 9 9 9 9 10
10 10 12 11 11 11 11 12 11 11 11 12 11 11 11 6 5 5 4 4 4 4 6 6 8 9 10 9 10 10 11 11 11 11 10 9 8 8 8 8 8 8 8 8
10 12 11 12 11 11 11 10 11 11 11 11 11 10 11 5 4 4 4 4 4 4 5 6 7 7 8 9 9 10 10 9 9 9 9 8 8 7 7 7 7 7 7 7
9 11 12 11 11 11 11 10 11 12 11 10 11 9 9 6 4 3 3 3 4 4 5 6 6 7 8 8 8 9 9 10 9 9 9 9 9 8 6 6 6 6 6 6
11 11 10 10 11 11 11 10 11 12 10 9 9 9 8 5 5 2 2 2 3 4 5 6 6 7 7 7 8 8 9 9 9 9 9 9 9 7 6 6 6 5 5 5
10 12 11 11 10 10 10 10 8 6 7 7 8 9 8 7 8 3 2 2 3 4 4 5 6 6 7 7 7 8 8 8 8 8 8 9 8 7 7 7 6 5 4 4
11 11 11 12 11 11 10 9 8 7 6 8 7 7 8 5 3 4 2 2 3 4 5 5 5 6 6 7 7 7 7 7 7 7 7 7 6 5 5 4 4 4 3 3
9 11 10 10 11 10 8 9 7 7 6 7 7 7 9 3 2 3 4 4 3 4 5 5 5 5 6 6 6 5 5 5 5 5 5 4 4 3 3 3 2 2 2 2
8 10 10 10 10 11 9 8 9 6 -3 3 7 7 4 2 2 2 2 3 4 4 4 5 5 5 5 5 4 4 4 4 4 4 3 3 3 3 2 2 2 1 1 1
10 10 9 10 10 9 9 8 8 5 5 4 7 6 8 3 2 1 1 2 4 4 4 4 4 4 4 3 3 3 3 3 2 2 2 2 1 1 1 1 1 1 0 0
8 9 8 9 8 8 8 8 7 7 5 4 3 7 5 5 3 2 2 4 5 5 5 4 4 4 3 3 2 2 2 2 1 1 1 0 0 0 -0 -0 -0 -0 -1 -1
8 7 5 7 7 5 8 7 7 7 6 3 4 9 4 4 4 3 4 7 7 5 5 4 4 3 3 2 2 1 1 1 1 0 -0 -0 -1 -1 -1 -1 -1 -2 -1 -2
7 5 2 5 7 6 6 6 6 4 2 1 4 5 4 3 3 5 6 6 5 6 5 4 3 3 2 2 1 1 1 0 -0 -1 -1 -1 -2 -2 -2 -2 -2 -2 -2 -2
9 4 6 9 7 5 5 5 4 4 3 3 6 6 4 3 3 3 4 5 5 6 5 3 2 2 1 1 1 0 -0 -0 -1 -1 -2 -2 -2 -3 -3 -3 -3 -3 -3 -3
6 4 3 5 5 4 4 4 3 4 5 6 6 5 5 4 2 4 5 5 4 5 4 3 2 2 1 0 0 -0 -0 -1 -1 -2 -2 -3 -3 -3 -3 -3 -3 -3 -3 -3
3 3 2 1 3 3 3 3 3 4 4 3 4 4 4 4 5 3 3 3 2 3 3 2 1 1 1 0 0 0 -0 -1 -2 -2 -2 -3 -3 -4 -4 -4 -4 -4 -4 -4
3 2 2 4 0 1 1 1 3 4 2 3 2 4 -2 1 1 2 2 2 2 2 2 2 1 1 0 0 0 -0 -1 -1 -2 -2 -3 -3 -4 -4 -4 -4 -5 -5 -4 -5
2 1 1 -1 -2 1 4 0 1 2 2 -1 -3 -4 -2 1 3 3 3 3 3 1 1 1 0 0 0 0 -0 -1 -1 -2 -2 -3 -3 -4 -4 -4 -5 -5 -5 -5 -6 -6
1 1 -2 1 -4 -1 2 1 -1 -0 1 -2 -1 -2 1 1 1 1 2 2 1 1 1 1 0 -0 -0 -1 -1 -1 -2 -2 -3 -3 -4 -4 -5 -5 -5 -5 -6 -6 -7 -7
-0 0 1 -6 -3 -2 1 -0 0 0 -2 -3 -1 -3 -0 -1 -5 -2 3 1 1 1 0 0 -0 -1 -1 -1 -1 -2 -2 -3 -3 -4 -5 -5 -5 -6 -6 -6 -6 -7 -8 -8
-4 -3 0 -3 -1 -4 -4 -2 0 -3 -0 -1 2 3 0 -5 0 3 2 1 1 0 0 -1 -1 -1 -1 -2 -2 -2 -3 -4 -4 -5 -5 -6 -6 -6 -6 -7 -7 -8 -9 -9
-4 -4 -5 -6 -4 -3 -2 -2 -1 -0 2 3 2 2 2 2 2 2 1 1 0 -0 -0 -1 -1 -1 -2 -2 -3 -3 -4 -5 -5 -5 -6 -6 -6 -7 -7 -7 -8 -9 -10 -10
-1 -2 -4 -3 -4 -2 -1 1 3 3 3 2 1 2 2 2 1 1 1 1 0 -1 -1 -1 -1 -2 -2 -3 -3 -4 -5 -6 -6 -6 -7 -7 -7 -7 -8 -8 -9 -9 -10 -11
-4 -4 -3 -4 -3 -3 0 2 3 2 2 3 2 2 1 1 1 1 1 0 -0 -1 -1 -1 -2 -2 -3 -3 -4 -5 -6 -6 -7 -7 -7 -7 -7 -8 -9 -10 -10 -10 -11 -12
-2 -4 -5 -5 -2 -1 -0 1 2 2 2 1 1 1 0 0 -0 0 -0 -0 -1 -1 -1 -2 -2 -3 -3 -4 -6 -6 -7 -7 -8 -8 -8 -8 -8 -9 -10 -10 -11 -11 -12 -14
-3 -2 -3 -4 1 1 1 2 2 1 1 1 1 0 -0 -0 -0 -0 -0 -0 -1 -1 -1 -2 -3 -3 -4 -6 -7 -7 -8 -8 -9 -9 -9 -9 -9 -10 -11 -11 -11 -12 -13 -14

GFSCGP_850_temp_036.txt.gz
Temp
12 10 10 10 10 12 12 11 12 12 12 13 11 10 11 7 6 4 4 5 5 6 6 7 8 9 10 11 11 11 11 11 10 11 11 10 10 9 9 8 9 9 9 9
9 9 11 11 10 11 12 11 10 10 11 11 11 10 7 5 4 4 4 4 4 5 6 7 8 9 9 10 10 11 11 11 11 11 10 10 9 9 8 7 7 7 8 8
9 12 10 11 10 10 9 9 10 11 11 11 11 9 7 3 3 3 3 3 4 5 5 6 7 8 8 9 10 10 10 10 10 10 10 10 9 8 8 8 8 8 7 7
9 10 11 10 10 10 10 9 10 11 10 9 10 9 9 5 3 2 2 3 4 4 5 5 6 7 8 8 9 9 9 9 9 9 10 10 10 10 8 8 7 7 7 7
10 9 9 10 10 10 11 9 9 10 9 9 9 8 7 4 4 2 1 2 3 4 5 5 6 7 7 7 8 8 8 9 8 9 9 9 9 8 6 6 5 5 5 5
10 11 9 10 9 10 8 9 7 5 6 6 8 9 8 6 6 2 2 2 3 4 5 5 6 6 7 7 7 7 7 8 8 8 8 8 7 6 6 5 5 4 3 3
10 10 11 11 9 10 9 9 8 7 6 7 6 7 8 7 4 4 2 2 3 3 4 5 6 6 6 6 6 6 6 7 6 6 6 6 6 6 5 4 4 3 3 3
8 9 9 9 10 9 8 9 7 7 6 7 6 7 8 3 2 3 4 4 3 4 4 4 4 5 5 5 5 5 5 5 5 5 5 4 4 4 4 3 3 2 2 2
8 10 9 10 9 10 8 8 8 6 -3 2 7 7 6 2 1 1 1 3 3 4 4 4 4 4 4 4 4 4 4 4 4 3 3 3 3 2 2 2 2 1 1 1
10 10 9 9 9 8 9 7 8 5 6 3 7 7 8 4 2 0 0 2 3 4 4 4 4 4 4 3 3 3 3 3 2 2 2 2 2 2 1 1 1 0 0 0
8 10 8 8 8 7 7 8 6 7 5 5 4 7 5 5 2 1 1 3 4 5 5 4 4 3 3 3 3 3 2 2 2 1 1 1 1 0 0 -0 -1 -1 -1 -1
8 7 4 7 6 5 7 7 7 8 6 2 4 8 3 4 3 3 3 5 5 5 5 4 4 4 3 3 3 2 2 1 1 0 0 0 -0 -0 -1 -1 -2 -2 -2 -2
7 5 3 5 7 6 6 6 5 4 3 2 4 7 3 3 2 4 4 5 5 5 5 5 4 4 3 2 2 1 1 0 0 -0 -0 -1 -1 -1 -2 -2 -2 -2 -2 -2
9 5 6 8 7 6 5 5 4 5 2 4 7 8 5 4 3 2 4 5 6 6 6 5 4 4 3 2 2 1 1 0 -0 -1 -1 -1 -1 -2 -2 -2 -3 -3 -3 -3
7 5 4 5 6 5 5 5 3 4 7 7 8 6 4 5 3 4 5 5 4 4 5 5 4 4 3 2 1 1 0 -0 -1 -1 -1 -1 -2 -2 -3 -3 -3 -3 -3 -3
4 3 3 2 3 3 3 3 3 4 4 3 4 4 5 6 6 5 5 5 5 5 5 5 4 4 2 1 1 1 0 -0 -1 -1 -1 -2 -2 -3 -3 -4 -4 -4 -4 -4
4 2 2 5 -0 1 4 3 2 3 2 4 4 6 -0 1 2 3 4 4 4 4 4 3 3 3 2 1 1 0 0 -1 -1 -1 -2 -2 -2 -3 -3 -4 -4 -4 -4 -4
2 1 2 -1 -0 3 5 -0 1 4 4 1 -1 -3 -0 1 3 4 3 3 3 3 2 2 2 1 1 1 0 0 -0 -1 -1 -2 -2 -2 -3 -3 -4 -4 -4 -5 -5 -5
1 2 -1 0 0 2 3 -1 -0 2 2 -1 1 1 1 1 0 1 2 3 3 2 2 1 1 1 1 0 0 -0 -0 -1 -1 -2 -2 -3 -3 -3 -4 -4 -5 -5 -5 -5
-0 1 4 -3 1 2 2 -1 0 1 1 -2 1 -1 -2 -1 -4 -3 3 3 2 2 1 1 1 1 0 -0 -1 -1 -1 -1 -2 -2 -3 -3 -3 -4 -5 -5 -6 -5 -6 -6
-1 -1 2 -1 0 -1 -3 -3 1 -1 1 -0 1 1 -1 -4 1 3 3 2 2 2 1 1 0 0 -0 -1 -1 -2 -2 -2 -2 -3 -3 -4 -4 -5 -5 -6 -6 -6 -7 -7
-1 -1 -2 -2 -1 1 -2 -2 0 0 1 4 2 2 2 3 2 2 2 2 1 1 1 0 -0 -0 -1 -1 -1 -2 -2 -2 -3 -4 -4 -5 -5 -6 -6 -6 -7 -7 -8 -8
0 -1 -2 -1 -1 -2 -1 1 2 3 4 3 3 3 2 2 1 1 1 1 1 0 0 0 -0 -1 -1 -1 -2 -2 -2 -3 -4 -5 -5 -6 -6 -6 -7 -7 -8 -8 -9 -9
-3 -3 -2 -2 -3 -2 -0 2 2 3 3 3 2 2 1 1 0 1 0 0 0 0 0 -0 -1 -1 -1 -1 -2 -2 -3 -4 -5 -6 -6 -6 -7 -8 -8 -8 -9 -9 -10 -10
-2 -3 -5 -4 -2 -2 0 1 3 3 2 2 1 1 1 -0 0 0 -0 -0 -0 -0 -0 -0 -1 -1 -1 -2 -2 -3 -3 -4 -6 -6 -7 -7 -8 -9 -10 -9 -10 -10 -11 -11
-3 -3 -2 -3 -0 1 2 3 3 2 2 1 1 1 0 -0 -0 -1 -1 -1 -1 -0 -1 -1 -1 -1 -2 -2 -3 -3 -4 -6 -7 -7 -8 -9 -9 -10 -10 -10 -11 -12 -12 -12

GFSCGP_850_temp_042.txt.gz
Temp
12 16 16 18 18 17 17 17 18 17 15 16 18 18 17 11 9 9 8 7 6 6 7 8 8 9 9 9 8 9 9 9 9 8 9 9 10 9 10 9 9 9 9 8
13 15 17 14 14 15 15 16 17 16 14 15 17 16 18 10 11 9 8 7 6 5 6 7 7 8 8 9 9 9 9 9 9 9 10 10 9 9 9 9 9 9 9 9
16 16 13 14 13 14 15 15 17 16 13 13 13 15 16 10 6 6 6 6 5 5 5 7 7 8 8 9 9 10 10 10 10 10 10 10 10 10 9 9 8 9 8 8
15 13 12 13 14 15 15 14 14 14 14 15 13 17 15 13 9 6 5 5 5 4 6 7 7 8 8 9 9 9 9 10 10 10 10 10 10 10 8 8 7 7 7 7
15 11 12 13 14 14 15 12 13 13 14 13 13 14 17 9 10 8 6 5 5 4 5 6 7 7 8 8 8 9 9 9 9 9 8 9 9 8 7 6 6 5 5 5
13 10 12 14 10 12 10 11 11 11 12 12 14 14 17 13 13 11 6 5 4 3 4 5 6 7 7 7 7 8 8 8 8 8 8 7 7 7 6 6 5 5 5 4
12 11 11 10 11 10 12 13 13 12 12 13 9 12 17 15 10 10 7 5 4 3 4 5 6 6 6 6 6 6 7 7 7 7 7 6 6 6 6 6 5 5 4 3
13 13 11 11 14 12 11 14 14 12 12 14 7 12 15 9 6 5 7 5 4 3 4 5 6 6 6 6 6 6 6 6 6 6 6 6 5 5 5 4 3 3 2 2
12 12 10 9 10 13 11 11 12 9 3 11 14 12 12 6 5 4 5 4 3 3 4 5 5 6 5 5 5 6 6 5 5 5 5 5 4 3 3 3 2 2 1 1
13 13 9 8 10 9 11 12 11 11 11 12 13 12 17 9 8 5 4 4 4 3 4 4 5 5 5 5 5 5 4 4 4 4 3 3 2 2 2 1 1 0 0 -0
11 12 9 9 10 12 10 10 11 12 12 13 14 15 13 13 11 7 6 5 4 3 3 5 5 5 5 5 5 4 3 3 3 3 2 2 1 1 1 0 -0 -0 -1 -1
11 9 9 10 8 7 12 13 12 13 9 9 10 14 8 9 9 8 7 5 4 3 4 5 5 5 5 4 4 3 3 2 2 2 1 1 1 0 -0 -1 -1 -1 -1 -2
10 9 9 9 8 6 8 9 11 12 8 10 11 14 6 6 6 6 6 5 3 3 4 4 4 4 4 4 4 3 2 2 1 1 1 0 -0 -0 -1 -1 -1 -2 -2 -2
12 9 10 13 14 12 9 10 9 11 11 13 11 13 8 8 7 5 4 5 4 4 4 4 4 4 4 4 3 3 2 2 1 0 0 -0 -0 -1 -1 -1 -2 -2 -2 -2
10 8 10 12 12 10 10 11 9 10 12 12 14 12 11 11 9 8 8 6 4 3 3 4 4 4 4 4 3 2 2 1 1 0 -0 -0 -1 -1 -1 -2 -2 -2 -2 -3
6 9 9 9 10 8 8 9 9 10 11 12 13 12 12 10 8 7 6 4 4 4 4 4 4 5 5 5 4 3 2 1 1 0 -0 -1 -1 -1 -1 -2 -2 -2 -3 -3
6 7 6 8 9 6 5 7 9 10 11 12 11 11 6 6 7 7 6 5 6 5 4 5 5 5 5 5 4 4 3 1 1 -0 -0 -1 -1 -1 -2 -2 -3 -3 -3 -4
4 5 5 6 4 6 8 5 9 8 8 6 4 4 5 6 6 6 7 7 6 5 5 5 5 5 4 4 4 3 2 1 0 -0 -0 -1 -1 -2 -2 -2 -3 -3 -4 -4
2 4 2 5 5 7 3 3 5 6 8 5 6 4 3 3 4 4 6 6 6 6 5 5 4 4 4 3 3 3 1 0 -0 -0 -0 -1 -1 -2 -2 -3 -3 -4 -4 -5
-0 2 5 2 6 7 9 3 2 6 7 3 4 2 1 2 5 7 6 5 5 4 4 4 4 4 3 2 2 1 1 0 1 0 -0 -1 -1 -2 -2 -3 -4 -4 -5 -5
2 2 4 3 5 5 3 1 2 6 6 2 3 2 0 2 5 6 5 4 4 4 4 3 3 3 2 1 1 1 1 0 0 -0 -1 -1 -2 -2 -2 -3 -4 -5 -6 -6
4 4 4 3 4 5 1 0 4 4 3 5 3 4 3 3 4 4 4 3 3 3 2 2 2 2 2 1 1 0 -0 -0 -1 -1 -1 -1 -2 -2 -3 -4 -5 -6 -6 -6
4 4 4 4 5 -1 1 2 3 4 6 5 6 5 4 3 3 3 3 2 2 1 1 1 1 1 1 0 0 -0 -0 -0 -1 -1 -1 -2 -2 -2 -3 -5 -6 -6 -7 -7
-0 -1 2 2 -0 -0 0 2 3 4 5 5 5 5 4 4 3 2 2 1 1 1 1 1 0 0 0 -0 -0 -0 -1 -1 -1 -1 -2 -2 -3 -3 -4 -5 -6 -7 -7 -7
0 -0 -1 -1 -1 -1 0 1 3 3 4 4 4 4 4 3 3 2 2 2 1 0 -0 -0 -0 -0 0 -0 -0 -1 -1 -2 -2 -2 -3 -3 -4 -5 -6 -6 -7 -7 -8 -8
-1 -0 1 2 2 3 3 5 3 3 3 3 3 3 2 2 2 2 1 1 0 -0 -1 -1 -1 -0 -0 -0 -1 -1 -2 -2 -2 -3 -3 -4 -5 -6 -7 -7 -8 -8 -9 -9

GFSCGP_850_temp_045.txt.gz
Temp
16 17 18 19 20 21 20 20 20 22 19 17 19 20 21 16 14 15 14 12 11 9 8 9 9 9 9 8 8 8 9 9 9 9 10 10 10 10 10 10 10 10 9 9
15 16 19 20 19 19 18 18 19 21 18 16 19 19 20 20 16 15 15 13 11 8 6 7 8 8 7 7 8 8 8 8 8 9 9 10 10 10 10 10 10 10 10 10
17 19 17 17 16 17 18 18 19 19 16 16 17 17 18 19 17 14 13 12 10 8 7 5 7 7 7 7 8 8 8 8 9 9 10 10 11 11 10 10 10 10 9 9
17 18 15 15 17 17 17 19 18 18 16 17 17 17 19 20 15 12 10 10 9 8 7 5 6 7 8 8 8 9 9 9 9 9 10 10 11 10 10 9 9 9 8 8
17 14 14 15 16 17 17 16 16 16 16 16 17 14 18 18 16 13 10 9 9 7 6 5 6 7 8 8 9 9 9 10 10 10 10 10 10 9 9 8 7 7 6 6
16 12 15 16 13 15 14 14 13 14 15 14 16 16 18 18 16 16 10 8 8 6 5 5 7 8 8 8 9 9 9 9 9 8 8 8 8 8 7 7 6 6 6 5
15 14 14 13 13 12 14 14 14 14 13 13 15 16 17 19 15 16 11 8 8 6 5 4 6 7 7 8 8 8 8 8 8 8 7 7 7 6 6 6 6 5 5 4
16 15 15 13 15 16 12 15 15 13 14 15 10 13 17 15 13 10 11 9 7 6 5 4 6 6 7 7 8 8 7 7 7 7 6 6 6 6 5 5 5 4 4 3
16 16 14 14 15 16 13 13 16 12 7 11 15 15 16 9 8 8 10 8 7 5 4 4 5 6 7 7 7 7 6 6 6 6 6 6 6 5 5 4 4 3 3 2
16 15 12 11 11 12 13 14 11 12 11 13 16 16 17 9 10 8 9 8 6 5 4 4 5 6 6 6 6 6 5 5 5 5 5 5 4 4 3 3 2 2 2 1
15 15 11 10 11 13 11 12 13 14 13 14 15 17 17 16 13 9 8 7 6 5 4 4 5 6 6 6 5 5 5 5 5 4 4 4 4 3 2 2 2 1 0 -0
13 14 13 12 13 12 15 14 13 13 11 12 12 16 12 14 15 11 8 7 6 5 4 4 4 5 5 5 5 5 5 5 4 4 4 3 2 2 2 1 1 0 -0 -1
12 10 9 11 10 9 10 12 13 13 10 11 12 15 11 10 11 11 10 8 7 5 4 4 3 5 5 5 5 5 4 4 4 3 3 2 2 1 1 0 -0 -1 -1 -1
12 9 9 14 15 14 10 11 11 12 11 12 13 15 10 10 10 9 9 8 7 5 4 4 3 4 4 4 5 4 4 3 3 3 2 2 1 0 0 -0 -1 -1 -2 -2
10 8 9 11 13 14 12 11 11 10 12 12 14 15 16 13 12 11 9 8 6 5 5 4 3 3 3 4 4 4 3 3 3 2 2 1 0 -0 -0 -1 -1 -2 -2 -2
7 7 8 8 10 11 10 12 12 11 11 13 14 15 18 16 13 12 10 8 7 6 5 4 4 3 3 4 3 4 4 4 3 2 2 1 -0 -1 -1 -1 -2 -2 -2 -2
5 5 6 8 9 9 6 8 10 12 12 13 12 14 9 11 10 10 9 8 7 7 6 4 4 4 4 3 5 5 5 3 3 2 1 0 -1 -0 -1 -1 -2 -2 -3 -3
5 4 6 8 6 8 11 13 10 11 12 12 11 5 6 8 9 10 10 9 8 6 5 4 4 3 3 4 5 4 4 3 3 2 1 -0 -0 -1 -1 -2 -2 -3 -3 -3
4 5 6 7 8 10 11 6 8 10 11 12 9 6 5 6 7 7 8 7 7 6 5 5 4 4 5 5 5 4 4 3 2 1 0 0 -0 -1 -1 -2 -2 -3 -3 -3
0 3 5 5 8 9 9 8 7 10 8 7 6 4 2 4 6 7 8 7 7 6 6 5 4 4 5 4 4 4 3 3 2 2 1 0 -0 -1 -1 -2 -2 -3 -3 -4
2 2 4 6 7 7 4 3 5 7 7 2 4 3 3 5 7 7 7 6 6 6 5 4 4 4 4 4 3 3 2 2 2 1 1 0 -0 -1 -1 -2 -2 -3 -3 -4
5 4 5 5 5 6 4 2 7 6 2 4 5 5 5 5 5 6 5 5 5 4 4 4 4 3 3 3 2 2 2 1 1 0 0 -0 -1 -1 -1 -2 -2 -3 -3 -5
4 6 6 6 5 1 2 2 4 5 6 7 6 6 5 4 4 5 4 4 4 4 3 3 3 2 2 2 1 1 1 1 0 -0 -0 -1 -1 -1 -2 -2 -2 -3 -4 -5
2 1 3 2 -1 -1 0 2 4 5 5 6 6 6 5 5 4 4 3 3 3 3 3 2 2 1 1 1 1 0 0 0 -0 -1 -1 -1 -1 -2 -2 -3 -3 -4 -4 -5
1 1 1 -1 -1 -1 -3 -1 3 4 4 4 5 5 5 4 4 4 3 3 3 2 2 1 1 1 1 1 0 0 -0 -0 -0 -1 -1 -1 -2 -2 -3 -3 -4 -4 -5 -6
0 1 2 2 1 1 0 2 3 3 4 4 4 4 4 4 4 4 3 2 2 2 1 1 0 0 -0 -0 -0 -0 -0 -1 -1 -2 -2 -2 -3 -3 -4 -4 -5 -5 -6 -7

GFSCGP_850_temp_048.txt.gz
Temp
16 14 14 16 16 18 18 18 17 19 17 17 15 16 17 15 15 15 16 14 12 11 9 10 10 9 8 7 8 8 8 8 9 9 10 10 10 10 10 10 10 10 10 9
13 13 16 18 18 17 17 16 16 18 15 16 16 15 17 16 15 15 16 15 13 10 9 8 9 8 6 7 8 8 8 8 9 9 9 10 10 9 10 10 10 10 10 10
14 16 17 16 17 16 16 16 16 16 16 15 14 13 15 16 18 15 15 15 13 11 9 7 8 8 6 7 7 8 8 8 9 9 9 9 9 9 9 9 10 9 9 9
15 16 16 16 15 15 15 17 16 16 15 13 14 12 16 16 15 14 15 14 12 10 8 7 7 8 7 6 7 7 7 8 9 9 9 10 11 11 9 9 9 9 9 9
15 14 13 14 15 15 15 15 16 16 13 13 13 12 15 16 16 13 11 12 11 9 8 7 7 8 8 7 7 7 8 8 9 9 10 10 10 10 9 9 8 8 7 7
15 14 15 15 12 15 13 14 14 14 13 10 13 13 14 16 15 15 12 11 11 9 7 6 5 7 8 8 8 8 8 9 9 9 10 10 10 9 9 8 7 7 6 6
13 13 13 13 12 12 14 13 11 10 9 10 14 12 15 16 15 15 11 10 10 8 7 5 6 7 8 8 8 8 9 9 9 9 9 9 9 8 8 7 6 6 5 5
12 12 13 11 13 12 11 13 10 10 10 10 9 10 13 10 11 13 13 9 9 7 6 5 6 8 8 8 9 9 9 9 9 9 8 8 8 7 7 6 6 5 5 4
15 14 12 12 13 13 11 11 14 11 4 6 10 12 14 9 8 10 9 8 8 6 6 5 6 8 8 8 8 8 8 8 8 8 8 7 7 6 6 5 5 5 4 3
15 14 12 9 12 12 12 12 10 9 8 8 11 11 13 9 8 7 8 8 7 6 5 5 6 7 8 8 8 7 7 8 7 7 7 6 6 6 5 5 4 3 3 2
14 13 9 9 9 11 10 10 11 12 9 8 9 12 15 14 10 7 9 8 7 6 5 6 6 7 8 7 7 7 7 7 7 6 6 6 6 5 4 4 3 2 2 1
13 12 8 9 12 11 12 11 11 11 10 9 8 14 13 12 10 9 9 8 7 6 5 5 5 6 7 7 6 6 6 6 6 6 5 5 5 4 3 3 2 2 1 1
12 9 8 9 9 9 9 10 12 13 8 11 9 12 9 9 10 9 8 8 7 6 5 5 4 5 7 6 6 6 6 6 5 5 5 4 4 3 3 2 2 1 1 0
13 8 10 12 13 10 8 9 10 11 10 9 12 13 10 9 8 8 8 7 7 6 5 4 4 5 6 6 6 6 5 5 4 4 4 4 4 3 2 2 1 1 -0 -0
10 9 9 11 12 11 9 9 9 10 11 11 12 12 13 12 8 9 10 8 7 6 5 5 5 5 5 5 5 5 5 5 4 4 4 4 3 2 1 1 0 -0 -0 -1
7 8 8 9 8 9 9 9 8 9 11 11 12 12 13 15 13 10 9 8 6 6 5 6 5 4 5 5 5 4 4 4 4 4 4 3 3 2 1 1 0 -0 -1 -1
6 6 6 8 8 8 8 8 9 10 10 11 10 12 11 12 9 10 9 8 7 6 6 6 6 5 4 4 4 5 4 4 4 4 4 3 2 2 1 1 -0 -1 -1 -2
5 5 6 8 7 8 10 10 9 9 10 10 10 7 6 10 13 13 12 11 9 9 7 6 5 5 5 4 4 3 3 4 4 4 3 2 2 1 1 -0 -1 -1 -2 -2
5 5 6 8 8 9 9 6 7 8 10 10 10 10 6 9 9 8 9 10 10 9 8 7 9 7 5 3 3 3 3 3 4 4 3 2 1 1 0 -0 -1 -1 -2 -2
1 4 6 5 7 9 6 5 6 8 8 6 8 7 2 5 6 5 8 8 8 8 8 8 8 6 4 4 4 3 3 3 4 4 3 2 1 0 -0 -0 -1 -2 -2 -2
2 3 5 6 7 6 2 2 6 6 6 2 6 4 4 4 7 9 9 9 9 8 8 7 5 5 4 4 4 3 3 3 4 3 2 1 0 -0 -0 -1 -1 -2 -2 -3
4 4 4 5 6 7 3 4 6 3 3 4 5 5 5 6 7 8 8 8 8 6 5 4 4 3 3 3 3 3 3 3 2 2 1 1 0 -0 -0 -1 -1 -2 -2 -3
4 4 5 5 5 1 2 2 4 4 4 5 5 5 6 6 5 6 6 5 5 5 4 3 3 3 3 3 3 2 3 2 1 1 1 0 0 -0 -0 -1 -1 -2 -2 -2
1 2 2 2 -0 -1 1 2 4 4 5 5 5 5 5 5 5 5 5 4 4 4 4 3 3 3 3 2 2 2 1 1 0 0 0 -0 -0 -1 -1 -1 -1 -2 -2 -3
0 1 -0 -2 -2 -2 -0 0 3 4 4 4 5 5 4 4 4 5 4 4 4 3 3 3 3 2 2 1 1 0 0 -0 -0 -0 -0 -1 -1 -1 -2 -2 -2 -3 -3 -4
-1 1 1 1 -0 1 1 4 4 4 4 4 4 4 4 4 4 4 4 4 3 3 3 2 2 1 1 0 0 0 0 -0 -0 -1 -1 -2 -2 -2 -3 -3 -3 -4 -4 -6